GW4339 Weather Reports


time (UTC)temp
C
wind
direction
speed
KPH
gust
KPH
rain 1hr
cm
rain 24hr
cm
rain mn
cm
humidity
%
barometer
mb
20260504160425 21 278 4.8 11.3 0.00 0.00 0.00 39 1016.4
20260504151027 19 284 1.6 6.4 0.00 0.00 0.00 42 1020.8
20260504150849 19 289 1.6 6.4 0.00 0.00 0.00 42 1016.6
20260504150345 18 235 0.0 6.4 0.00 0.00 0.00 41 1016.6
20260504141316 16 233 0.0 3.2 0.00 0.00 0.00 52 1016.9
20260504141055 16 307 4.8 9.7 0.00 0.00 0.00 52 1021.2
20260504140812 16 93 6.4 11.3 0.00 0.00 0.00 51 1017.2
20260504140308 16 220 1.6 9.7 0.00 0.00 0.00 52 1017.2
20260504130737 13 261 3.2 9.7 0.00 0.00 0.00 59 1017.4
20260504130233 13 342 3.2 9.7 0.00 0.00 0.00 59 1017.4
20260504120156 11 294 1.6 1.6 0.00 0.00 0.00 69 1017.8
20260504110624 10 274 0.0 0.0 0.00 0.00 0.00 74 1017.9
20260504110120 9 255 0.0 0.0 0.00 0.00 0.00 75 1017.9
20260504100545 10 261 0.0 0.0 0.00 0.00 0.00 71 1017.9
20260504081939 10 259 0.0 3.2 0.00 0.00 0.00 76 1018.1
20260504081436 10 245 0.0 1.6 0.00 0.00 0.00 77 1018.1
20260504080932 10 252 0.0 1.6 0.00 0.00 0.00 78 1018.0
20260504080429 10 241 0.0 1.6 0.00 0.00 0.00 79 1018.3
20260504070357 8 33 0.0 0.0 0.00 0.00 0.00 85 1018.3
20260504050744 7 108 0.0 0.0 0.00 0.00 0.00 88 1018.4
20260504050241 7 108 0.0 0.0 0.00 0.00 0.00 88 1018.4
20260504045738 7 108 0.0 1.6 0.00 0.00 0.00 88 1018.3
20260504045233 7 108 0.0 1.6 0.00 0.00 0.00 88 1018.2
20260504044731 7 108 0.0 0.0 0.00 0.00 0.00 88 1018.1
20260504044229 7 107 1.6 1.6 0.00 0.00 0.00 89 1018.1
20260504043725 7 211 0.0 0.0 0.00 0.00 0.00 89 1018.1
20260504043222 7 211 0.0 0.0 0.00 0.00 0.00 89 1018.2
20260504042720 6 211 0.0 0.0 0.00 0.00 0.00 89 1018.1
20260504042216 6 211 0.0 0.0 0.00 0.00 0.00 89 1018.2
20260504041712 6 211 0.0 0.0 0.00 0.00 0.00 89 1018.3
20260504041208 6 211 0.0 0.0 0.00 0.00 0.00 90 1018.2
20260504040705 6 211 0.0 0.0 0.00 0.00 0.00 90 1018.1
20260504040202 6 211 0.0 1.6 0.00 0.00 0.00 90 1018.2
20260504035658 6 211 0.0 0.0 0.00 0.00 0.00 90 1018.1
20260504035156 6 211 0.0 0.0 0.00 0.00 0.00 90 1018.0
20260504034653 6 211 0.0 0.0 0.00 0.00 0.00 90 1018.2
20260504034150 6 211 0.0 0.0 0.00 0.00 0.00 90 1018.1
20260504033648 6 211 0.0 0.0 0.00 0.00 0.00 90 1018.2
20260504033145 6 211 0.0 0.0 0.00 0.00 0.00 89 1018.1
20260504032641 6 211 0.0 0.0 0.00 0.00 0.00 89 1018.2
20260504032139 6 211 0.0 0.0 0.00 0.00 0.00 89 1018.0
20260504031636 6 211 0.0 0.0 0.00 0.00 0.00 88 1018.0
20260504031132 6 211 0.0 0.0 0.00 0.00 0.00 88 1018.0
20260504030629 6 211 0.0 0.0 0.00 0.00 0.00 87 1017.8
20260504030125 6 211 0.0 0.0 0.00 0.00 0.00 87 1018.0
20260504025622 6 211 0.0 0.0 0.00 0.00 0.00 86 1018.1
20260504025119 6 211 0.0 0.0 0.00 0.00 0.00 85 1018.0
20260504024617 6 211 0.0 0.0 0.00 0.00 0.00 85 1018.0
20260504024113 6 211 0.0 0.0 0.00 0.00 0.00 84 1018.0
20260504023610 6 211 0.0 1.6 0.00 0.00 0.00 84 1018.0
20260504023105 6 211 0.0 0.0 0.00 0.00 0.00 83 1017.9
20260504022602 6 211 0.0 0.0 0.00 0.00 0.00 82 1017.9
20260504022058 7 234 0.0 0.0 0.00 0.00 0.00 82 1018.1
20260504021556 7 234 0.0 0.0 0.00 0.00 0.00 80 1018.0
20260504021053 7 235 0.0 0.0 0.00 0.00 0.00 80 1017.8
20260504020550 7 235 0.0 0.0 0.00 0.00 0.00 80 1017.9
20260504020046 7 235 0.0 0.0 0.00 0.00 0.00 79 1017.8
20260504015542 7 235 0.0 0.0 0.00 0.00 0.00 79 1017.5
20260504015038 7 237 0.0 0.0 0.00 0.00 0.00 78 1017.8
20260504014535 7 237 0.0 0.0 0.00 0.00 0.00 77 1017.6
20260504014032 7 237 0.0 0.0 0.00 0.00 0.00 76 1017.9
20260504013530 7 245 0.0 0.0 0.00 0.00 0.00 76 1017.9
20260504013026 7 245 0.0 0.0 0.00 0.00 0.00 76 1017.8
20260504012524 7 245 0.0 0.0 0.00 0.00 0.00 75 1017.8
20260504012021 7 245 0.0 0.0 0.00 0.00 0.00 75 1017.5
20260504011517 7 245 0.0 0.0 0.00 0.00 0.00 74 1017.3
20260504011013 8 245 0.0 0.0 0.00 0.00 0.00 73 1017.4
20260504010509 8 245 0.0 0.0 0.00 0.00 0.00 71 1017.4
20260504010005 8 251 0.0 0.0 0.00 0.00 0.00 71 1017.5
20260504005502 8 251 0.0 0.0 0.00 0.00 0.00 70 1017.4
20260504005000 8 251 0.0 0.0 0.00 0.00 0.00 69 1017.4
20260504004457 8 251 0.0 0.0 0.00 0.00 0.00 68 1017.3
20260504003954 9 251 0.0 0.0 0.00 0.00 0.00 67 1017.3
20260504003450 9 253 0.0 0.0 0.00 0.00 0.00 66 1017.3
20260504003032 10 0.0 0.0 0.00 0.00 0.00 65 1021.4
20260504002947 9 253 0.0 0.0 0.00 0.00 0.00 65 1017.4
20260504002444 10 245 0.0 0.0 0.00 0.00 0.00 64 1017.3
20260504002020 10 0.0 0.0 0.00 0.00 0.00 61 1021.4
20260504001942 10 245 0.0 0.0 0.00 0.00 0.00 61 1017.2
20260504001439 10 245 0.0 0.0 0.00 0.00 0.00 60 1017.3
20260504001110 11 0.0 0.0 0.00 0.00 0.00 58 1021.2
20260504000935 11 245 0.0 0.0 0.00 0.00 0.00 58 1017.1
20260504000432 11 245 0.0 0.0 0.00 0.00 0.00 57 1017.0
20260504000041 11 0.0 0.0 0.00 0.00 0.00 55 1021.2
20260503235930 11 245 0.0 0.0 0.00 0.00 0.00 55 1017.0
20260503235427 12 245 0.0 0.0 0.00 0.00 0.00 55 1017.0
20260503235031 12 0.0 0.0 0.00 0.00 0.00 53 1021.1
20260503234925 12 245 0.0 0.0 0.00 0.00 0.00 53 1016.7
20260503234422 12 245 0.0 0.0 0.00 0.00 0.00 51 1016.8
20260503234022 13 0.0 0.0 0.00 0.00 0.00 50 1020.9
20260503233920 13 245 0.0 0.0 0.00 0.00 0.00 49 1016.8
20260503233416 13 246 0.0 0.0 0.00 0.00 0.00 48 1016.6
20260503233052 13 0.0 0.0 0.00 0.00 0.00 47 1020.9
20260503232913 13 246 0.0 0.0 0.00 0.00 0.00 46 1016.6
20260503232410 14 246 0.0 0.0 0.00 0.00 0.00 44 1016.7
20260503232041 14 246 0.0 3.2 0.00 0.00 0.00 44 1020.8
20260503231908 14 246 0.0 3.2 0.00 0.00 0.00 44 1016.6
20260503231405 15 251 1.6 6.4 0.00 0.00 0.00 39 1016.6
20260503231031 15 255 1.6 4.8 0.00 0.00 0.00 39 1020.9
20260503230901 15 233 1.6 3.2 0.00 0.00 0.00 39 1016.7
20260503230357 15 242 1.6 1.6 0.00 0.00 0.00 42 1016.8
20260503230023 15 239 0.0 3.2 0.00 0.00 0.00 38 1020.9
20260503225855 15 263 1.6 1.6 0.00 0.00 0.00 41 1016.7
20260503225351 15 259 1.6 3.2 0.00 0.00 0.00 35 1016.6
20260503225054 15 249 1.6 3.2 0.00 0.00 0.00 36 1020.9
20260503224848 15 247 1.6 4.8 0.00 0.00 0.00 37 1016.9
20260503224345 15 257 3.2 9.7 0.00 0.00 0.00 37 1016.7
20260503224044 16 241 3.2 4.8 0.00 0.00 0.00 37 1021.0
20260503223843 15 253 1.6 4.8 0.00 0.00 0.00 37 1016.7
20260503223340 16 259 4.8 9.7 0.00 0.00 0.00 35 1016.7
20260503223036 17 249 3.2 11.3 0.00 0.00 0.00 35 1021.0
20260503222835 17 258 1.6 4.8 0.00 0.00 0.00 35 1016.8
20260503222334 17 258 0.0 3.2 0.00 0.00 0.00 34 1016.8
20260503222026 17 252 3.2 4.8 0.00 0.00 0.00 34 1020.9
20260503221832 17 223 3.2 4.8 0.00 0.00 0.00 34 1016.8
20260503221331 16 313 0.0 0.0 0.00 0.00 0.00 33 1016.7
20260503221015 16 237 4.8 9.7 0.00 0.00 0.00 33 1021.1
20260503220821 16 260 8.0 9.7 0.00 0.00 0.00 33 1016.8
20260503220318 16 163 4.8 9.7 0.00 0.00 0.00 34 1016.9
20260503220045 16 250 6.4 14.5 0.00 0.00 0.00 34 1021.2
20260503215814 16 215 3.2 11.3 0.00 0.00 0.00 33 1016.9
20260503215311 16 213 1.6 6.4 0.00 0.00 0.00 35 1017.0
20260503215034 17 255 4.8 11.3 0.00 0.00 0.00 34 1021.1
20260503214809 17 246 8.0 12.9 0.00 0.00 0.00 33 1016.8
20260503214306 16 235 3.2 12.9 0.00 0.00 0.00 34 1016.9
20260503214023 17 256 4.8 11.3 0.00 0.00 0.00 34 1021.0
20260503213803 16 237 9.7 11.3 0.00 0.00 0.00 34 1016.9
20260503213300 17 243 3.2 6.4 0.00 0.00 0.00 34 1016.8
20260503213015 16 248 4.8 9.7 0.00 0.00 0.00 34 1021.0
20260503212757 16 230 3.2 9.7 0.00 0.00 0.00 34 1016.8
20260503212255 16 233 4.8 6.4 0.00 0.00 0.00 34 1016.8
20260503212047 16 259 3.2 6.4 0.00 0.00 0.00 34 1021.0
20260503211752 16 238 0.0 1.6 0.00 0.00 0.00 33 1016.8
20260503211249 16 258 6.4 11.3 0.00 0.00 0.00 34 1017.0
20260503211059 16 225 6.4 12.9 0.00 0.00 0.00 35 1021.1
20260503210744 16 257 8.0 12.9 0.00 0.00 0.00 34 1017.0
20260503210242 16 212 8.0 14.5 0.00 0.00 0.00 34 1016.7
20260503210031 16 248 6.4 12.9 0.00 0.00 0.00 34 1020.9
20260503205742 16 212 6.4 11.3 0.00 0.00 0.00 34 1016.7
20260503205239 16 276 6.4 12.9 0.00 0.00 0.00 35 1017.0
20260503205026 16 241 4.8 11.3 0.00 0.00 0.00 34 1021.1
20260503204735 16 228 3.2 9.7 0.00 0.00 0.00 34 1016.9
20260503204233 16 244 6.4 16.1 0.00 0.00 0.00 35 1016.8
20260503204017 16 267 4.8 9.7 0.00 0.00 0.00 34 1021.0
20260503203730 16 257 8.0 9.7 0.00 0.00 0.00 35 1016.8
20260503203227 16 234 6.4 9.7 0.00 0.00 0.00 33 1016.8
20260503203052 17 262 4.8 12.9 0.00 0.00 0.00 34 1021.2
20260503202724 17 268 4.8 12.9 0.00 0.00 0.00 35 1017.2
20260503202222 16 235 4.8 6.4 0.00 0.00 0.00 35 1017.1
20260503202046 16 251 4.8 12.9 0.00 0.00 0.00 34 1021.3
20260503201720 16 221 3.2 9.7 0.00 0.00 0.00 34 1017.1
20260503201217 16 227 8.0 14.5 0.00 0.00 0.00 34 1017.4
20260503201038 16 239 4.8 12.9 0.00 0.00 0.00 35 1021.5
20260503200713 15 235 6.4 14.5 0.00 0.00 0.00 35 1017.3
20260503200210 16 232 8.0 14.5 0.00 0.00 0.00 34 1017.3
20260503200030 16 239 6.4 11.3 0.00 0.00 0.00 33 1021.6
20260503195707 16 239 9.7 11.3 0.00 0.00 0.00 33 1017.5
20260503195204 16 249 1.6 9.7 0.00 0.00 0.00 34 1017.4
20260503195025 16 247 4.8 12.9 0.00 0.00 0.00 34 1021.7
20260503194701 16 232 9.7 17.7 0.00 0.00 0.00 33 1017.5
20260503194156 16 275 3.2 3.2 0.00 0.00 0.00 35 1017.5
20260503194017 16 238 4.8 11.3 0.00 0.00 0.00 35 1021.8
20260503193653 16 191 4.8 9.7 0.00 0.00 0.00 36 1017.6
20260503193149 16 280 3.2 11.3 0.00 0.00 0.00 34 1017.8
20260503193110 16 201 6.4 16.1 0.00 0.00 0.00 34 1022.1
20260503192645 16 199 9.7 17.7 0.00 0.00 0.00 33 1017.8
20260503192140 16 159 3.2 17.7 0.00 0.00 0.00 35 1018.0
20260503192042 16 212 6.4 14.5 0.00 0.00 0.00 33 1021.9
20260503191637 16 193 3.2 11.3 0.00 0.00 0.00 32 1017.8
20260503191134 16 237 4.8 9.7 0.00 0.00 0.00 35 1018.0
20260503191034 16 262 3.2 9.7 0.00 0.00 0.00 36 1022.3
20260503190631 16 202 1.6 6.4 0.00 0.00 0.00 35 1017.9
20260503190128 15 233 4.8 12.9 0.00 0.00 0.00 37 1018.1
20260503190027 15 222 9.7 16.1 0.00 0.00 0.00 35 1022.3
20260503185625 15 231 9.7 22.5 0.00 0.00 0.00 35 1018.0
20260503185120 15 161 4.8 12.9 0.00 0.00 0.00 35 1018.2
20260503185040 15 223 8.0 11.3 0.00 0.00 0.00 35 1022.5
20260503184615 15 246 4.8 14.5 0.00 0.00 0.00 36 1018.3
20260503184112 15 241 9.7 16.1 0.00 0.00 0.00 36 1018.2
20260503184052 15 234 4.8 12.9 0.00 0.00 0.00 37 1022.6
20260503183609 14 236 8.0 20.9 0.00 0.00 0.00 38 1018.4
20260503183106 14 277 8.0 14.5 0.00 0.00 0.00 37 1018.4
20260503183047 15 213 8.0 17.7 0.00 0.00 0.00 35 1022.7
20260503182604 15 342 6.4 9.7 0.00 0.00 0.00 34 1018.5
20260503182102 15 118 11.3 16.1 0.00 0.00 0.00 35 1018.5
20260503182041 15 243 4.8 17.7 0.00 0.00 0.00 37 1022.7
20260503181559 15 220 9.7 17.7 0.00 0.00 0.00 35 1018.5
20260503181055 14 48 1.6 14.5 0.00 0.00 0.00 39 1018.4
20260503181033 15 260 6.4 14.5 0.00 0.00 0.00 35 1022.8
20260503180552 15 139 3.2 3.2 0.00 0.00 0.00 35 1018.6
20260503180050 14 244 4.8 11.3 0.00 0.00 0.00 37 1018.4
20260503180026 14 244 6.4 11.3 0.00 0.00 0.00 37 1022.7
20260503175547 13 238 3.2 22.5 0.00 0.00 0.00 36 1018.6
20260503175044 14 239 8.0 9.7 0.00 0.00 0.00 37 1018.6
20260503175019 14 268 4.8 9.7 0.00 0.00 0.00 38 1022.8
20260503174541 14 51 1.6 6.4 0.00 0.00 0.00 39 1018.7
20260503174050 13 210 4.8 12.9 0.00 0.00 0.00 39 1023.0
20260503174037 13 188 0.0 9.7 0.00 0.00 0.00 39 1018.7
20260503173532 13 233 12.9 24.1 0.00 0.00 0.00 38 1018.7
20260503173040 13 228 1.6 3.2 0.00 0.00 0.00 40 1023.0
20260503173029 13 227 1.6 12.9 0.00 0.00 0.00 38 1018.8
20260503172527 13 179 8.0 11.3 0.00 0.00 0.00 36 1018.6
20260503172024 13 218 4.8 14.5 0.00 0.00 0.00 37 1018.9
20260503171520 13 196 9.7 12.9 0.00 0.00 0.00 38 1019.0
20260503171018 13 237 3.2 16.1 0.00 0.00 0.00 40 1019.1
20260503170514 13 260 4.8 16.1 0.00 0.00 0.00 38 1019.0